H1 CPF 2 NER 2021 4 1 9 091 01 glonass127 H2 1106403 9127 37869 2021 4 1 0 0 0 2021 4 4 23 45 0 900 1 1 0 0 0 1 H9 10 0 59305 0.00000 0 17426475.169 -10317345.029 15580011.174 10 0 59305 900.00000 0 16140003.315 -8721695.976 17790477.825 10 0 59305 1800.00000 0 14840340.896 -6824908.949 19657307.458 10 0 59305 2700.00000 0 13584723.302 -4657592.281 21144595.221 10 0 59305 3600.00000 0 12424913.524 -2261541.589 22223742.443 10 0 59305 4500.00000 0 11405058.873 311738.252 22873988.653 10 0 59305 5400.00000 0 10559883.374 3002911.145 23082798.372 10 0 59305 6300.00000 0 9913289.174 5747012.436 22846096.591 10 0 59305 7200.00000 0 9477423.563 8475887.718 22168349.091 10 0 59305 8100.00000 0 9252249.562 11120770.003 21062486.032 10 0 59305 9000.00000 0 9225637.832 13614891.772 19549669.449 10 0 59305 9900.00000 0 9373976.760 15896026.457 17658907.658 10 0 59305 10800.00000 0 9663276.595 17908856.401 15426521.920 10 0 59305 11700.00000 0 10050723.302 19607070.483 12895473.169 10 0 59305 12600.00000 0 10486619.096 20955104.835 10114559.263 10 0 59305 13500.00000 0 10916630.195 21929453.884 7137495.684 10 0 59305 14400.00000 0 11284248.857 22519495.944 4021895.214 10 0 59305 15300.00000 0 11533366.958 22727797.100 828164.672 10 0 59305 16200.00000 0 11610852.633 22569878.580 -2381661.051 10 0 59305 17100.00000 0 11469020.313 22073455.213 -5545125.490 10 0 59305 18000.00000 0 11067888.000 21277174.993 -8600573.775 10 0 59305 18900.00000 0 10377123.705 20228911.322 -11488367.790 10 0 59305 19800.00000 0 9377595.549 18983678.983 -14152068.167 10 0 59305 20700.00000 0 8062456.461 17601261.603 -16539558.090 10 0 59305 21600.00000 0 6437714.080 16143651.285 -18604084.941 10 0 59305 22500.00000 0 4522258.456 14672409.658 -20305197.304 10 0 59305 23400.00000 0 2347343.640 13246063.407 -21609556.927 10 0 59305 24300.00000 0 -44457.132 11917646.048 -22491608.098 10 0 59305 25200.00000 0 -2600780.054 10732491.500 -22934089.933 10 0 59305 26100.00000 0 -5261419.398 9726374.091 -22928380.602 10 0 59305 27000.00000 0 -7960614.246 8924074.446 -22474666.334 10 0 59305 27900.00000 0 -10629576.736 8338432.067 -21581931.879 10 0 59305 28800.00000 0 -13199154.734 7969924.172 -20267773.100 10 0 59305 29700.00000 0 -15602516.328 7806787.315 -18558036.256 10 0 59305 30600.00000 0 -17777742.818 7825674.722 -16486292.264 10 0 59305 31500.00000 0 -19670220.996 7992819.180 -14093157.804 10 0 59305 32400.00000 0 -21234734.680 8265649.458 -11425478.287 10 0 59305 33300.00000 0 -22437168.662 8594789.079 -8535390.508 10 0 59305 34200.00000 0 -23255755.185 8926350.125 -5479285.223 10 0 59305 35100.00000 0 -23681812.999 9204422.700 -2316691.652 10 0 59305 36000.00000 0 -23719950.840 9373652.958 890892.848 10 0 59305 36900.00000 0 -23387729.971 9381799.604 4081203.939 10 0 59305 37800.00000 0 -22714803.232 9182160.537 7192418.254 10 0 59305 38700.00000 0 -21741569.767 8735767.568 10164344.634 10 0 59305 39600.00000 0 -20517404.365 8013257.699 12939575.952 10 0 59305 40500.00000 0 -19098537.440 6996343.576 15464580.381 10 0 59305 41400.00000 0 -17545675.284 5678822.834 17690712.668 10 0 59305 42300.00000 0 -15921460.092 4067085.442 19575127.909 10 0 59305 43200.00000 0 -14287874.871 2180098.798 21081582.604 10 0 59305 44100.00000 0 -12703699.752 48871.502 22181109.985 10 0 59305 45000.00000 0 -11222123.491 -2284582.154 22852558.849 10 0 59305 45900.00000 0 -9888607.030 -4768735.220 23082987.536 10 0 59305 46800.00000 0 -8739085.548 -7344438.667 22867906.826 10 0 59305 47700.00000 0 -7798581.683 -9947133.688 22211367.855 10 0 59305 48600.00000 0 -7080286.006 -12509297.121 21125893.321 10 0 59305 49500.00000 0 -6585142.226 -14963021.907 19632252.539 10 0 59305 50400.00000 0 -6301954.375 -17242628.559 17759083.203 10 0 59305 51300.00000 0 -6208012.238 -19287201.951 15542365.114 10 0 59305 52200.00000 0 -6270210.234 -21042949.970 13024753.528 10 0 59305 53100.00000 0 -6446614.671 -22465286.873 10254782.468 10 0 59305 54000.00000 0 -6688415.496 -23520554.670 7285950.803 10 0 59305 54900.00000 0 -6942182.183 -24187309.836 4175706.465 10 0 59305 55800.00000 0 -7152329.969 -24457119.901 984346.795 10 0 59305 56700.00000 0 -7263692.936 -24334834.434 -2226144.870 10 0 59305 57600.00000 0 -7224094.871 -23838316.604 -5393304.268 10 0 59305 58500.00000 0 -6986807.950 -22997644.222 -8455409.168 10 0 59305 59400.00000 0 -6512793.089 -21853811.840 -11352695.516 10 0 59305 60300.00000 0 -5772624.282 -20456987.032 -14028541.652 10 0 59305 61200.00000 0 -4748012.212 -18864393.563 -16430595.527 10 0 59305 62100.00000 0 -3432859.157 -17137910.627 -18511820.881 10 0 59305 63000.00000 0 -1833797.164 -15341489.992 -20231439.830 10 0 59305 63900.00000 0 29816.285 -13538501.207 -21555751.341 10 0 59305 64800.00000 0 2126447.396 -11789118.321 -22458807.905 10 0 59305 65700.00000 0 4413458.677 -10147859.889 -22922935.760 10 0 59305 66600.00000 0 6838660.788 -8661387.468 -22939087.504 10 0 59305 67500.00000 0 9342278.652 -7366656.413 -22507019.761 10 0 59305 68400.00000 0 11859248.846 -6289497.350 -21635292.352 10 0 59305 69300.00000 0 14321750.890 -5443687.865 -20341089.491 10 0 59305 70200.00000 0 16661865.109 -4830552.465 -18649867.315 10 0 59305 71100.00000 0 18814244.550 -4439105.841 -16594835.917 10 0 59305 72000.00000 0 20718687.885 -4246730.951 -14216287.522 10 0 59305 72900.00000 0 22322505.091 -4220360.323 -11560785.747 10 0 59305 73800.00000 0 23582576.885 -4318107.481 -8680233.593 10 0 59305 74700.00000 0 24467022.409 -4491276.425 -5630840.370 10 0 59305 75600.00000 0 24956406.915 -4686661.253 -2472009.431 10 0 59305 76500.00000 0 25044441.067 -4849036.331 734830.043 10 0 59305 77400.00000 0 24738145.279 -4923730.013 3927423.247 10 0 59305 78300.00000 0 24057475.235 -4859172.221 7043897.906 10 0 59305 79200.00000 0 23034427.238 -4609308.159 10023956.833 10 0 59305 80100.00000 0 21711663.548 -4135776.929 12810032.144 10 0 59305 81000.00000 0 20140717.283 -3409764.442 15348379.907 10 0 59305 81900.00000 0 18379853.229 -2413454.078 17590095.700 10 0 59305 82800.00000 0 16491674.243 -1141015.769 19492033.473 10 0 59305 83700.00000 0 14540572.531 400906.719 21017612.365 10 0 59305 84600.00000 0 12590130.498 2193229.951 22137498.376 10 0 59305 85500.00000 0 10700577.268 4204984.905 22830150.016 10 0 59306 0.00000 0 8926404.031 6394368.627 23082219.440 10 0 59306 900.00000 0 7314234.728 8710251.648 22888802.776 10 0 59306 1800.00000 0 5901037.505 11094079.990 22253535.631 10 0 59306 2700.00000 0 4712750.264 13482096.809 21188531.905 10 0 59306 3600.00000 0 3763374.511 15807793.806 19714166.454 10 0 59306 4500.00000 0 3054575.733 18004494.113 17858704.243 10 0 59306 5400.00000 0 2575806.466 20007962.169 15657781.189 10 0 59306 6300.00000 0 2304947.913 21758934.342 13153744.198 10 0 59306 7200.00000 0 2209444.657 23205466.288 10394860.599 10 0 59306 8100.00000 0 2247886.551 24304999.667 7434409.646 10 0 59306 9000.00000 0 2371973.043 25026061.398 4329671.360 10 0 59306 9900.00000 0 2528778.679 25349522.902 1140830.540 10 0 59306 10800.00000 0 2663225.094 25269364.500 -2070184.024 10 0 59306 11700.00000 0 2720655.223 24792910.311 -5240903.120 10 0 59306 12600.00000 0 2649400.122 23940521.075 -8309539.764 10 0 59306 13500.00000 0 2403228.187 22744755.322 -11216206.283 10 0 59306 14400.00000 0 1943570.639 21249032.045 -13904100.701 10 0 59306 15300.00000 0 1241426.114 19505849.780 -16320637.345 10 0 59306 16200.00000 0 278860.390 17574636.367 -18418497.577 10 0 59306 17100.00000 0 -949965.636 15519319.988 -20156577.975 10 0 59306 18000.00000 0 -2438286.265 13405724.516 -21500815.359 10 0 59306 18900.00000 0 -4166763.945 11298900.038 -22424870.773 10 0 59306 19800.00000 0 -6104065.501 9260502.302 -22910657.652 10 0 59306 20700.00000 0 -8207958.693 7346332.917 -22948702.806 10 0 59306 21600.00000 0 -10426883.476 5604144.883 -22538332.704 10 0 59306 22500.00000 0 -12701931.754 4071806.443 -21687681.346 10 0 59306 23400.00000 0 -14969151.598 2775900.566 -20413520.023 10 0 59306 24300.00000 0 -17162078.029 1730818.126 -18740913.128 10 0 59306 25200.00000 0 -19214382.819 938381.386 -16702707.980 10 0 59306 26100.00000 0 -21062530.799 388011.321 -14338870.173 10 0 59306 27000.00000 0 -22648330.311 57428.757 -11695679.179 10 0 59306 27900.00000 0 -23921270.380 -86143.567 -8824801.797 10 0 59306 28800.00000 0 -24840546.720 -84332.225 -5782263.457 10 0 59306 29700.00000 0 -25376692.556 14409.421 -2627339.254 10 0 59306 30600.00000 0 -25512747.477 157109.080 578612.150 10 0 59306 31500.00000 0 -25244917.507 288768.917 3773347.776 10 0 59306 32400.00000 0 -24582701.341 354937.534 6894948.685 10 0 59306 33300.00000 0 -23548480.227 304251.263 9883013.863 10 0 59306 34200.00000 0 -22176591.253 90837.638 12679816.803 10 0 59306 35100.00000 0 -20511925.035 -323519.411 15231403.502 10 0 59306 36000.00000 0 -18608107.873 -967542.480 17488612.256 10 0 59306 36900.00000 0 -16525344.959 -1859027.327 19407997.538 10 0 59306 37800.00000 0 -14328014.274 -3003871.877 20952642.520 10 0 59306 38700.00000 0 -12082110.119 -4395607.092 22092847.043 10 0 59306 39600.00000 0 -9852640.709 -6015448.742 22806680.041 10 0 59306 40500.00000 0 -7701085.364 -7832868.114 23080387.828 10 0 59306 41400.00000 0 -5683014.001 -9806658.979 22908651.871 10 0 59306 42300.00000 0 -3845964.960 -11886458.189 22294691.866 10 0 59306 43200.00000 0 -2227666.643 -14014659.259 21250212.243 10 0 59306 44100.00000 0 -854674.817 -16128642.373 19795192.398 10 0 59306 45000.00000 0 258518.997 -18163231.203 17957523.283 10 0 59306 45900.00000 0 1109871.482 -20053277.368 15772495.368 10 0 59306 46800.00000 0 1709647.465 -21736267.483 13282145.389 10 0 59306 47700.00000 0 2079760.738 -23154845.879 10534471.932 10 0 59306 48600.00000 0 2252621.906 -24259148.618 7582532.407 10 0 59306 49500.00000 0 2269540.023 -25008851.106 4483436.543 10 0 59306 50400.00000 0 2178743.662 -25374842.454 1297254.116 10 0 59306 51300.00000 0 2033103.659 -25340454.444 -1914143.164 10 0 59306 52200.00000 0 1887653.164 -24902190.929 -5088283.701 10 0 59306 53100.00000 0 1797009.979 -24069924.097 -8163318.336 10 0 59306 54000.00000 0 1812811.422 -22866546.430 -11079238.338 10 0 59306 54900.00000 0 1981272.149 -21327090.355 -13779063.932 10 0 59306 55800.00000 0 2340970.950 -19497350.569 -16209978.248 10 0 59306 56700.00000 0 2920963.254 -17432065.640 -18324382.528 10 0 59306 57600.00000 0 3739302.491 -15192734.789 -20080849.832 10 0 59306 58500.00000 0 4802035.978 -12845161.903 -21444956.523 10 0 59306 59400.00000 0 6102720.622 -10456830.791 -22389973.500 10 0 59306 60300.00000 0 7622481.195 -8094223.186 -22897402.261 10 0 59306 61200.00000 0 9330610.240 -5820193.590 -22957344.248 10 0 59306 62100.00000 0 11185685.188 -3691512.438 -22568695.753 10 0 59306 63000.00000 0 13137155.697 -1756681.621 -21739164.521 10 0 59306 63900.00000 0 15127333.742 -54114.498 -20485108.098 10 0 59306 64800.00000 0 17093701.682 1389243.645 -18831197.942 10 0 59306 65700.00000 0 18971439.831 2558797.956 -16809917.060 10 0 59306 66600.00000 0 20696065.751 3452654.084 -14460902.496 10 0 59306 67500.00000 0 22206073.073 4081424.035 -11830147.317 10 0 59306 68400.00000 0 23445458.053 4467499.276 -8969079.494 10 0 59306 69300.00000 0 24366027.281 4643825.316 -5933537.658 10 0 59306 70200.00000 0 24929389.993 4652233.089 -2782665.479 10 0 59306 71100.00000 0 25108552.302 4541400.961 422252.209 10 0 59306 72000.00000 0 24889048.076 4364536.243 3618987.589 10 0 59306 72900.00000 0 24269561.195 4176876.252 6745578.314 10 0 59306 73800.00000 0 23262015.505 4033115.730 9741522.603 10 0 59306 74700.00000 0 21891131.179 3984869.504 12548938.116 10 0 59306 75600.00000 0 20193468.205 4078276.945 15113663.243 10 0 59306 76500.00000 0 18215998.620 4351847.980 17386281.100 10 0 59306 77400.00000 0 16014267.984 4834639.671 19323048.416 10 0 59306 78300.00000 0 13650222.748 5544838.241 20886713.763 10 0 59306 79200.00000 0 11189792.971 6488804.438 22047211.811 10 0 59306 80100.00000 0 8700329.197 7660621.102 22782222.522 10 0 59306 81000.00000 0 6247997.442 9042161.411 23077586.581 10 0 59306 81900.00000 0 3895237.448 10603675.388 22927570.560 10 0 59306 82800.00000 0 1698386.665 12304871.426 22334977.584 10 0 59306 83700.00000 0 -294434.420 14096449.834 21311101.474 10 0 59306 84600.00000 0 -2045090.391 15922027.224 19875524.582 10 0 59306 85500.00000 0 -3526780.709 17720374.504 18055761.836 10 0 59307 0.00000 0 -4724916.222 19427878.340 15886755.947 10 0 59307 900.00000 0 -5637485.925 20981126.133 13410230.697 10 0 59307 1800.00000 0 -6274898.518 22319508.975 10673913.092 10 0 59307 2700.00000 0 -6659303.330 23387734.495 7730635.645 10 0 59307 3600.00000 0 -6823418.723 24138145.671 4637334.671 10 0 59307 4500.00000 0 -6808914.639 24532746.899 1453961.779 10 0 59307 5400.00000 0 -6664416.474 24544851.067 -1757671.499 10 0 59307 6300.00000 0 -6443213.409 24160275.837 -4935094.172 10 0 59307 7200.00000 0 -6200767.764 23378035.896 -8016397.709 10 0 59307 8100.00000 0 -5992131.257 22210498.864 -10941454.880 10 0 59307 9000.00000 0 -5869378.896 20682995.216 -13653110.359 10 0 59307 9900.00000 0 -5879171.214 18832895.981 -16098317.981 10 0 59307 10800.00000 0 -6060550.734 16708194.981 -18229200.399 10 0 59307 11700.00000 0 -6443068.912 14365653.955 -20004008.324 10 0 59307 12600.00000 0 -7045325.841 11868588.103 -21387958.467 10 0 59307 13500.00000 0 -7873987.275 9284385.332 -22353932.053 10 0 59307 14400.00000 0 -8923322.902 6681864.170 -22883018.762 10 0 59307 15300.00000 0 -10175287.077 4128582.461 -22964894.422 10 0 59307 16200.00000 0 -11600139.596 1688210.954 -22598024.539 10 0 59307 17100.00000 0 -13157580.620 -581917.036 -21789689.580 10 0 59307 18000.00000 0 -14798351.357 -2632976.445 -20555831.920 10 0 59307 18900.00000 0 -16466232.047 -4426450.772 -18920728.263 10 0 59307 19800.00000 0 -18100351.627 -5935487.187 -16916495.119 10 0 59307 20700.00000 0 -19637710.121 -7145751.066 -14582438.535 10 0 59307 21600.00000 0 -21015805.970 -8055746.550 -11964262.518 10 0 59307 22500.00000 0 -22175256.376 -8676592.690 -9113153.456 10 0 59307 23400.00000 0 -23062299.465 -9031268.126 -6084760.391 10 0 59307 24300.00000 0 -23631072.761 -9153359.861 -2938092.811 10 0 59307 25200.00000 0 -23845572.556 -9085372.562 265640.970 10 0 59307 26100.00000 0 -23681212.870 -8876672.933 3464230.909 10 0 59307 27000.00000 0 -23125920.224 -8581158.605 6595673.756 10 0 59307 27900.00000 0 -22180720.286 -8254751.703 9599369.355 10 0 59307 28800.00000 0 -20859794.045 -7952823.762 12417281.779 10 0 59307 29700.00000 0 -19190003.253 -7727660.502 14995043.870 10 0 59307 30600.00000 0 -17209906.660 -7626072.452 17282985.382 10 0 59307 31500.00000 0 -14968309.216 -7687250.442 19237066.813 10 0 59307 32400.00000 0 -12522404.973 -7940954.271 20819703.299 10 0 59307 33300.00000 0 -9935590.301 -8406108.676 22000465.126 10 0 59307 34200.00000 0 -7275036.855 -9089863.803 22756643.678 10 0 59307 35100.00000 0 -4609122.723 -9987158.433 23073674.006 10 0 59307 36000.00000 0 -2004825.418 -11080803.914 22945407.439 10 0 59307 36900.00000 0 474818.275 -12342085.796 22374229.853 10 0 59307 37800.00000 0 2773083.496 -13731859.482 21371023.502 10 0 59307 38700.00000 0 4841664.074 -15202096.347 19954972.483 10 0 59307 39600.00000 0 6642429.648 -16697818.457 18153214.261 10 0 59307 40500.00000 0 8148761.656 -18159344.071 16000341.997 10 0 59307 41400.00000 0 9346413.346 -19524752.993 13537764.838 10 0 59307 42300.00000 0 10233857.671 -20732471.076 10812935.960 10 0 59307 43200.00000 0 10822107.753 -21723867.434 7878460.642 10 0 59307 44100.00000 0 11134016.036 -22445756.326 4791099.236 10 0 59307 45000.00000 0 11203079.864 -22852698.456 1610682.520 10 0 59307 45900.00000 0 11071802.161 -22909003.774 -1601040.911 10 0 59307 46800.00000 0 10789675.010 -22590349.357 -4781603.436 10 0 59307 47700.00000 0 10410870.512 -21884941.412 -7869039.880 10 0 59307 48600.00000 0 9991736.496 -20794169.182 -10803107.146 10 0 59307 49500.00000 0 9588203.864 -19332719.829 -13526476.868 10 0 59307 50400.00000 0 9253216.783 -17528146.318 -15985875.910 10 0 59307 51300.00000 0 9034296.755 -15419903.859 -18133150.444 10 0 59307 52200.00000 0 8971346.271 -13057893.438 -19926230.642 10 0 59307 53100.00000 0 9094787.783 -10500572.603 -21329975.032 10 0 59307 54000.00000 0 9424119.423 -7812712.464 -22316876.212 10 0 59307 54900.00000 0 9966950.878 -5062895.374 -22867612.658 10 0 59307 55800.00000 0 10718561.960 -2320859.180 -22971434.749 10 0 59307 56700.00000 0 11662003.623 345199.563 -22626376.912 10 0 59307 57600.00000 0 12768737.531 2871249.283 -21839291.634 10 0 59307 58500.00000 0 13999786.767 5199863.163 -20625705.034 10 0 59307 59400.00000 0 15307348.128 7282372.402 -19009497.624 10 0 59307 60300.00000 0 16636796.477 9080643.115 -17022417.664 10 0 59307 61200.00000 0 17928994.744 10568403.368 -14703438.124 10 0 59307 62100.00000 0 19122810.321 11732066.633 -12097971.581 10 0 59307 63000.00000 0 20157730.005 12571019.804 -9256960.189 10 0 59307 63900.00000 0 20976461.877 13097366.850 -6235860.509 10 0 59307 64800.00000 0 21527413.693 13335142.652 -3093544.775 10 0 59307 65700.00000 0 21766943.215 13319033.812 108858.387 10 0 59307 66600.00000 0 21661286.270 13092663.932 3309159.863 10 0 59307 67500.00000 0 21188082.619 12706518.701 6445318.560 10 0 59307 68400.00000 0 20337437.115 12215600.609 9456638.808 10 0 59307 69300.00000 0 19112473.601 11676913.609 12284933.687 10 0 59307 70200.00000 0 17529360.237 11146884.171 14875632.772 10 0 59307 71100.00000 0 15616806.921 10678826.891 17178814.405 10 0 59307 72000.00000 0 13415056.999 10320559.982 19150144.478 10 0 59307 72900.00000 0 10974415.816 10112269.057 20751705.980 10 0 59307 73800.00000 0 8353376.943 10084706.757 21952705.774 10 0 59307 74700.00000 0 5616422.826 10257801.660 22730047.274 10 0 59307 75600.00000 0 2831589.025 10639733.018 23068760.161 10 0 59307 76500.00000 0 67890.319 11226508.994 22962280.383 10 0 59307 77400.00000 0 -2607287.712 12002065.746 22412576.015 10 0 59307 78300.00000 0 -5130726.887 12938883.851 21430116.739 10 0 59307 79200.00000 0 -7445742.319 13999097.817 20033686.950 10 0 59307 80100.00000 0 -9504280.452 15136054.470 18250044.768 10 0 59307 81000.00000 0 -11268664.146 16296257.691 16113431.588 10 0 59307 81900.00000 0 -12712913.350 17421620.967 13664939.228 10 0 59307 82800.00000 0 -13823586.551 18451935.934 10951744.266 10 0 59307 83700.00000 0 -14600107.326 19327455.506 8026221.768 10 0 59307 84600.00000 0 -15054561.138 19991484.441 4944953.087 10 0 59307 85500.00000 0 -15210969.193 20392868.716 1767645.099 10 0 59308 0.00000 0 -15104068.158 20488278.311 -1444019.485 10 0 59308 900.00000 0 -14777645.491 20244185.098 -4627579.487 10 0 59308 1800.00000 0 -14282499.387 19638451.092 -7721015.845 10 0 59308 2700.00000 0 -13674109.028 18661454.818 -10663972.236 10 0 59308 3600.00000 0 -13010113.708 17316707.046 -13398949.650 10 0 59308 4500.00000 0 -12347708.567 15620924.933 -15872450.099 10 0 59308 5400.00000 0 -11741068.728 13603559.013 -18036045.036 10 0 59308 6300.00000 0 -11238913.040 11305790.136 -19847345.498 10 0 59308 7200.00000 0 -10882313.000 8779036.842 -21270852.841 10 0 59308 8100.00000 0 -10702842.011 6083034.869 -22278671.666 10 0 59308 9000.00000 0 -10721145.498 3283569.145 -22851069.471 10 0 59308 9900.00000 0 -10945994.120 449953.931 -22976871.007 10 0 59308 10800.00000 0 -11373861.239 -2347632.450 -22653679.041 10 0 59308 11700.00000 0 -11989042.927 -5040845.572 -21887917.077 10 0 59308 12600.00000 0 -12764315.097 -7565791.484 -20694693.553 10 0 59308 13500.00000 0 -13662098.991 -9865451.689 -19097490.974 10 0 59308 14400.00000 0 -14636084.226 -11891814.830 -17127687.171 10 0 59308 15300.00000 0 -15633238.864 -13607626.274 -14823919.580 10 0 59308 16200.00000 0 -16596119.484 -14987683.654 -12231306.674 10 0 59308 17100.00000 0 -17465381.647 -16019626.161 -9400543.587 10 0 59308 18000.00000 0 -18182382.938 -16704187.272 -6386891.572 10 0 59308 18900.00000 0 -18691767.393 -17054903.698 -3249082.805 10 0 59308 19800.00000 0 -18943921.602 -17097296.473 -48163.485 10 0 59308 20700.00000 0 -18897198.848 -16867562.260 3153700.859 10 0 59308 21600.00000 0 -18519818.291 -16410833.379 6294433.836 10 0 59308 22500.00000 0 -17791360.443 -15779082.561 9313246.689 10 0 59308 23400.00000 0 -16703797.749 -15028762.633 12151803.783 10 0 59308 24300.00000 0 -15262018.779 -14218281.476 14755333.521 10 0 59308 25200.00000 0 -13483825.757 -13405418.514 17073664.689 10 0 59308 26100.00000 0 -11399406.842 -12644790.408 19062170.140 10 0 59308 27000.00000 0 -9050305.882 -11985470.735 20682601.951 10 0 59308 27900.00000 0 -6487932.447 -11468861.352 21903804.423 10 0 59308 28800.00000 0 -3771673.198 -11126902.316 22702293.503 10 0 59308 29700.00000 0 -966681.228 -10980693.130 23062693.629 10 0 59308 30600.00000 0 1858567.532 -11039581.236 22978025.165 10 0 59308 31500.00000 0 4634852.512 -11300754.835 22449837.867 10 0 59308 32400.00000 0 7294817.876 -11749356.844 21488188.073 10 0 59308 33300.00000 0 9775508.247 -12359115.927 20111459.454 10 0 59308 34200.00000 0 12020728.494 -13093469.707 18346029.526 10 0 59308 35100.00000 0 13983132.023 -13907135.302 16225786.434 10 0 59308 36000.00000 0 15625952.312 -14748063.940 13791502.911 10 0 59308 36900.00000 0 16924306.175 -15559700.204 11090076.910 10 0 59308 37800.00000 0 17866014.156 -16283453.363 8173650.961 10 0 59308 38700.00000 0 18451902.752 -16861278.523 5098624.812 10 0 59308 39600.00000 0 18695574.162 -17238259.790 1924578.594 10 0 59308 40500.00000 0 18622651.378 -17365086.392 -1286874.021 10 0 59308 41400.00000 0 18269528.479 -17200316.121 -4473281.127 10 0 59308 42300.00000 0 17681677.151 -16712328.392 -7572572.971 10 0 59308 43200.00000 0 16911579.848 -15880881.546 -10524282.974 10 0 59308 44100.00000 0 16016376.480 -14698205.193 -13270744.269 10 0 59308 45000.00000 0 15055324.476 -13169577.927 -15758236.548 10 0 59308 45900.00000 0 14087180.748 -11313362.533 -17938058.806 10 0 59308 46800.00000 0 13167617.959 -9160494.164 -19767504.856 10 0 59308 47700.00000 0 12346786.484 -6753440.644 -21210720.421 10 0 59308 48600.00000 0 11667127.389 -4144677.014 -22239423.216 10 0 59308 49500.00000 0 11161530.982 -1394737.543 -22833470.429 10 0 59308 50400.00000 0 10851920.529 1430073.035 -22981261.386 10 0 59308 51300.00000 0 10748322.151 4260212.554 -22679966.926 10 0 59308 52200.00000 0 10848460.658 7025571.741 -21935580.860 10 0 59308 53100.00000 0 11137898.131 9658168.795 -20762792.831 10 0 59308 54000.00000 0 11590708.360 12094754.541 -19184685.829 10 0 59308 54900.00000 0 12170657.012 14279218.539 -17232265.402 10 0 59308 55800.00000 0 12832835.522 16164695.305 -14943831.269 10 0 59308 56700.00000 0 13525677.246 17715283.194 -12364205.320 10 0 59308 57600.00000 0 14193268.258 18907305.439 -9543832.907 10 0 59308 58500.00000 0 14777852.856 19730062.652 -6537776.985 10 0 59308 59400.00000 0 15222426.088 20186048.207 -3404626.509 10 0 59308 60300.00000 0 15473302.504 20290620.837 -205342.006 10 0 59308 61200.00000 0 15482552.123 20071151.753 2997937.820 10 0 59308 62100.00000 0 15210200.986 19565685.643 6143104.413 10 0 59308 63000.00000 0 14626104.318 18821174.935 9169278.854 10 0 59308 63900.00000 0 13711414.784 17891363.909 12017979.454 10 0 59308 64800.00000 0 12459585.709 16834413.167 14634235.774 10 0 59308 65700.00000 0 10876868.775 15710364.739 16967629.041 10 0 59308 66600.00000 0 8982286.783 14578553.810 18973240.717 10 0 59308 67500.00000 0 6807083.496 13495074.253 20612493.278 10 0 59308 68400.00000 0 4393673.685 12510402.144 21853869.440 10 0 59308 69300.00000 0 1794136.508 11667274.325 22673498.318 10 0 59308 70200.00000 0 -931686.651 10998908.221 23055599.378 10 0 59308 71100.00000 0 -3718413.254 10527635.035 22992777.293 10 0 59308 72000.00000 0 -6497570.284 10264001.697 22486162.995 10 0 59308 72900.00000 0 -9200176.301 10206378.078 21545398.526 10 0 59308 73800.00000 0 -11759351.246 10341085.717 20188465.438 10 0 59308 74700.00000 0 -14112848.853 10643043.461 18441358.815 10 0 59308 75600.00000 0 -16205409.296 11076904.448 16337611.314 10 0 59308 76500.00000 0 -17990836.193 11598638.913 13917674.002 10 0 59308 77400.00000 0 -19433712.491 12157498.723 11228163.365 10 0 59308 78300.00000 0 -20510683.800 12698283.415 8320986.378 10 0 59308 79200.00000 0 -21211254.747 13163814.290 5252358.086 10 0 59308 80100.00000 0 -21538063.481 13497513.562 2081728.760 10 0 59308 81000.00000 0 -21506620.871 13645980.096 -1129359.962 10 0 59308 81900.00000 0 -21144523.214 13561452.329 -4318468.566 10 0 59308 82800.00000 0 -20490169.591 13204052.634 -7423479.420 10 0 59308 83700.00000 0 -19591036.359 12543715.746 -10383818.406 10 0 59308 84600.00000 0 -18501580.619 11561716.516 -13141653.329 10 0 59308 85500.00000 0 -17280860.962 10251728.924 -15643043.828 99